Retour au catalogue

SSD

ActifMilitaireLEO
NORAD 13792·PAYLOAD·🇺🇸 United States

Lancé Feb 9, 1983 depuis Vandenberg Space Force Base

Loading…

Prochains Passages (prochaines 24 heures)

TLE

FraisSource: Space-Track

Époque: Sep 14, 2026, 04:17 UTC

1 13792U 83008B   26257.17901549  .00000059  00000-0  97348-4 0  9998
2 13792  63.3392 185.4317 0556321 140.9601 223.2988 13.47551932114877

Suivez SSD en temps réel avec AllMySat

Download on the App Store